Weather History for CYHM - December, 2013

Change the Weather History Date:

Friday, December 13, 2013

  Actual Average Record
Temperature  
Mean Temperature 18 °F -  
Max Temperature 25 °F 30 °F 51 °F (2001)
Min Temperature 12 °F 17 °F 5 °F (2005)
Degree Days  
Heating Degree Days 46    
Moisture  
Dew Point 10 °F    
Average Humidity 73    
Maximum Humidity 86    
Minimum Humidity 54    
Precipitation  
Precipitation 0.04 in 0.10 in - ()
Sea Level Pressure  
Sea Level Pressure 30.20 in    
Wind  
Wind Speed 13 mph ()    
Max Wind Speed 21 mph    
Max Gust Speed 31 mph    
Visibility 8.4 miles    
Events Snow    
Averages and records for this station are not official NWS values.
T = Trace of Precipitation, MM = Missing Value Source: Averaged Metar Reports

Daily Weather History Graph

Daily Weather History Graph

Search for Another Location

Airport or City:

Trip Planner

Search our weather history database for the weather conditions in past years. The results will help you decide how hot, cold, wet, or windy it might be!

Date:

Astronomy

Dec. 13, 2013 Rise Set
Actual Time 7:43 AM EST 4:44 PM EST
Civil Twilight 7:10 AM EST 5:17 PM EST
Nautical Twilight 6:34 AM EST 5:53 PM EST
Astronomical Twilight 6:00 AM EST 6:27 PM EST
Moon 2:30 PM EST (12/13) 4:00 AM EST (12/13)
Length of Visible Light 10h 06m
Length of Day
9h 01m
Waxing Gibbous, 88% of the Moon is Illuminated
Dec 13
Waxing Gibbous
Dec 17
Full
Dec 25
Last Quarter
Jan 1
New
Jan 7
First Quarter

Hourly Weather History & Observations

Time (EST) Temp. Windchill Dew Point Humidity Pressure Visibility Wind Dir Wind Speed Gust Speed Precip Events Conditions
12:00 AM 15.8 °F -1.5 °F 6.8 °F 68% 30.09 in 15.0 mi WSW 20.7 mph 31.1 mph N/A   Overcast
1:00 AM 17 °F - 8 °F 54% 30.09 in 15 mi WSW 19.6 mph - -   Overcast
1:00 AM 15.8 °F -1.1 °F 6.8 °F 68% 30.09 in 15.0 mi WSW 19.6 mph 26.5 mph N/A   Overcast
2:00 AM 15.8 °F 0.3 °F 8.6 °F 73% 30.07 in 15.0 mi SW 16.1 mph - N/A   Overcast
3:00 AM 17.6 °F 3.7 °F 10.4 °F 73% 30.07 in 15.0 mi WSW 13.8 mph 20.7 mph N/A   Overcast
4:00 AM 19.4 °F 5.0 °F 12.2 °F 74% 30.07 in 15.0 mi WSW 16.1 mph - N/A   Overcast
5:00 AM 21.2 °F 6.4 °F 12.2 °F 68% 30.06 in 15.0 mi WSW 18.4 mph 26.5 mph N/A   Overcast
5:48 AM 21.2 °F 6.8 °F 14.0 °F 74% 30.08 in 8.0 mi WSW 17.3 mph 26.5 mph N/A Snow Light Snow Showers
6:00 AM 21.2 °F 6.8 °F 14.0 °F 74% 30.08 in 3.0 mi WSW 17.3 mph 27.6 mph N/A Snow Light Snow Showers
7:00 AM 21 °F - 15 °F 70% 30.09 in 15 mi WSW 16.1 mph - - Snow Light Snow Showers
7:00 AM 21.2 °F 7.8 °F 15.8 °F 80% 30.09 in 15.0 mi WSW 15.0 mph 21.9 mph N/A Snow Light Snow Showers
8:00 AM 21.2 °F 8.9 °F 15.8 °F 80% 30.11 in 15.0 mi WSW 12.7 mph 20.7 mph N/A   Overcast
9:00 AM 23.0 °F 13.1 °F 15.8 °F 74% 30.14 in 15.0 mi WSW 9.2 mph - N/A   Overcast
9:27 AM 23.0 °F 12.4 °F 15.8 °F 74% 30.15 in 8.0 mi West 10.4 mph - N/A Snow Light Snow Showers
10:00 AM 23.0 °F 11.1 °F 17.6 °F 80% 30.16 in 2.5 mi West 12.7 mph 19.6 mph N/A Snow Light Snow Showers
11:00 AM 24.8 °F 14.6 °F 17.6 °F 74% 30.17 in 4.0 mi West 10.4 mph 20.7 mph N/A Snow Light Snow Showers
12:00 PM 15.8 °F 1.4 °F 10.4 °F 79% 30.19 in 2.2 mi NE 13.8 mph - N/A Snow Light Snow Showers
12:17 PM 15.8 °F 2.1 °F 10.4 °F 79% 30.20 in 1.5 mi NE 12.7 mph - N/A Snow Light Snow Showers
1:00 PM 15 °F - 10 °F 73% 30.20 in 1 mi NE 10.4 mph - - Snow Light Snow Showers
1:00 PM 14.0 °F 0.5 °F 10.4 °F 86% 30.20 in 1.5 mi NE 11.5 mph - N/A Snow Light Snow Showers
1:26 PM 14.0 °F 1.2 °F 10.4 °F 86% 30.21 in 2.5 mi NE 10.4 mph - N/A Snow Light Snow Showers
2:00 PM 15.8 °F 5.1 °F 10.4 °F 79% 30.22 in 3.0 mi NE 8.1 mph - N/A Snow Light Snow Showers
3:00 PM 15.8 °F 6.1 °F 10.4 °F 79% 30.24 in 5.0 mi ENE 6.9 mph - N/A Snow Light Snow Showers
4:00 PM 15.8 °F 7.2 °F 8.6 °F 73% 30.27 in 2.5 mi ENE 5.8 mph - N/A Snow Light Snow Showers
4:04 PM 15.8 °F 6.1 °F 8.6 °F 73% 30.27 in 3.0 mi ENE 6.9 mph - N/A Snow Light Snow Showers
5:00 PM 15.8 °F 5.1 °F 8.6 °F 73% 30.29 in 10.0 mi NE 8.1 mph - N/A Snow Light Snow Showers
6:00 PM 15.8 °F 6.1 °F 6.8 °F 68% 30.31 in 15.0 mi NNE 6.9 mph - N/A Snow Light Snow Showers
7:00 PM 15 °F - 6 °F 54% 30.33 in 15 mi NNE 6.9 mph - - Snow Light Snow Showers
7:00 PM 14.0 °F 3.9 °F 5.0 °F 67% 30.33 in 15.0 mi NNE 6.9 mph - N/A Snow Light Snow Showers
8:00 PM 14.0 °F 1.2 °F 5.0 °F 67% 30.33 in 5.0 mi NNE 10.4 mph - N/A Snow Light Snow Showers
9:00 PM 14.0 °F 0.5 °F 5.0 °F 67% 30.36 in 5.0 mi NE 11.5 mph - N/A Snow Light Snow Showers
9:39 PM 12.2 °F -1.0 °F 6.8 °F 79% 30.37 in 4.0 mi NE 10.4 mph - N/A Snow Light Snow Showers
10:00 PM 12.2 °F -1.0 °F 6.8 °F 79% 30.38 in 1.5 mi NNE 10.4 mph - N/A Snow Light Snow Showers
11:00 PM 12.2 °F -0.2 °F 6.8 °F 79% 30.39 in 2.0 mi NNE 9.2 mph - N/A Snow Light Snow Showers